FW2567 Weather Reports


time (UTC)temp
C
wind
direction
speed
KPH
gust
KPH
rain 1hr
cm
rain 24hr
cm
rain mn
cm
humidity
%
barometer
mb
20260510183031 20 284 14.5 29.0 0.00 0.00 0.00 53 1018.6
20260510180029 20 276 9.7 22.5 0.00 0.00 0.00 54 1018.5
20260510174530 20 259 3.2 22.5 0.00 0.00 0.00 58 1018.6
20260510171645 19 46 4.8 9.7 0.00 0.00 0.00 60 1018.5
20260510170030 18 32 0.0 4.8 0.00 0.00 0.00 62 1018.6
20260510164531 17 337 0.0 3.2 0.00 0.00 0.00 66 1018.6
20260510161608 15 67 1.6 4.8 0.00 0.00 0.00 73 1018.5
20260510160031 15 15 1.6 4.8 0.00 0.00 0.00 75 1018.6
20260510153030 14 298 1.6 4.8 0.00 0.00 0.00 79 1018.3
20260510151530 13 112 0.0 6.4 0.00 0.00 0.00 83 1018.2
20260510150028 12 81 0.0 6.4 0.00 0.00 0.00 86 1018.3
20260510144531 10 90 0.0 0.0 0.00 0.00 0.00 88 1018.1
20260510143032 10 270 0.0 0.0 0.00 0.00 0.00 90 1017.9
20260510141531 9 270 0.0 0.0 0.00 0.00 0.00 91 1017.9
20260510140148 7 122 0.0 4.8 0.00 0.00 0.00 92 1017.7
20260510134532 7 126 1.6 6.4 0.00 0.00 0.00 93 1017.9
20260510131530 5 138 3.2 6.4 0.00 0.00 0.00 93 1017.7
20260510130029 5 248 1.6 6.4 0.00 0.00 0.00 93 1017.8
20260510123032 5 145 3.2 8.0 0.00 0.00 0.00 94 1018.0
20260510114608 4 139 1.6 6.4 0.00 0.00 0.00 93 1017.9
20260510113103 4 112 0.0 3.2 0.00 0.00 0.00 93 1017.8
20260510110146 4 182 1.6 4.8 0.00 0.00 0.00 93 1017.6
20260510101529 4 172 0.0 4.8 0.00 0.00 0.00 92 1017.9
20260510094531 5 201 0.0 4.8 0.00 0.00 0.00 92 1017.7
20260510093030 5 159 1.6 4.8 0.00 0.00 0.00 91 1017.8
20260510091530 5 157 1.6 6.4 0.00 0.00 0.00 91 1018.0
20260510090031 5 157 1.6 3.2 0.00 0.00 0.00 91 1018.1
20260510084533 5 157 1.6 4.8 0.00 0.00 0.00 90 1018.2
20260510083030 6 157 0.0 3.2 0.00 0.00 0.00 90 1018.3
20260510081529 6 157 0.0 1.6 0.00 0.00 0.00 90 1018.4
20260510074532 6 157 0.0 4.8 0.00 0.00 0.00 89 1018.6
20260510073030 6 157 1.6 3.2 0.00 0.00 0.00 88 1018.6
20260510071531 6 196 0.0 3.2 0.00 0.00 0.00 88 1018.6
20260510064529 7 173 0.0 3.2 0.00 0.00 0.00 87 1018.6
20260510063032 7 157 1.6 3.2 0.00 0.00 0.00 86 1018.4
20260510061529 7 153 0.0 6.4 0.00 0.00 0.00 86 1018.4
20260510060031 8 157 0.0 0.0 0.00 0.00 0.00 85 1018.4
20260510054528 8 149 1.6 4.8 0.00 0.00 0.00 84 1018.3
20260510053106 8 132 3.2 6.4 0.00 0.00 0.00 82 1018.3
20260510051529 10 139 3.2 6.4 0.00 0.00 0.00 81 1018.2
20260510050030 10 149 1.6 6.4 0.00 0.00 0.00 78 1018.1
20260510043032 11 150 1.6 4.8 0.00 0.00 0.00 77 1018.0
20260510040030 13 157 4.8 8.0 0.00 0.00 0.00 72 1017.7
20260510034531 15 157 0.0 1.6 0.00 0.00 0.00 68 1017.6
20260510033030 16 157 0.0 1.6 0.00 0.00 0.00 66 1017.5
20260510031531 17 157 0.0 3.2 0.00 0.00 0.00 64 1017.5
20260510024533 19 157 0.0 3.2 0.00 0.00 0.00 59 1017.6
20260510023028 20 185 1.6 4.8 0.00 0.00 0.00 56 1017.5
20260510020031 22 247 0.0 0.0 0.00 0.00 0.00 45 1017.5
20260510013029 23 247 1.6 3.2 0.00 0.00 0.00 38 1017.8
20260510011530 23 265 1.6 4.8 0.00 0.00 0.00 34 1017.9
20260510010030 24 287 4.8 11.3 0.00 0.00 0.00 32 1017.9
20260510004531 25 273 6.4 11.3 0.00 0.00 0.00 32 1017.9
20260510003028 25 293 6.4 12.9 0.00 0.00 0.00 34 1018.0
20260510001530 25 315 4.8 12.9 0.00 0.00 0.00 36 1018.0
20260510000032 25 353 4.8 12.9 0.00 0.00 0.00 36 1018.0
20260509234529 26 11 4.8 11.3 0.00 0.00 0.00 36 1018.3
20260509233108 26 12 4.8 11.3 0.00 0.00 0.00 36 1018.4
20260509231531 25 359 4.8 12.9 0.00 0.00 0.00 37 1018.7
20260509230030 25 5 4.8 11.3 0.00 0.00 0.00 38 1018.9
20260509224532 25 2 3.2 11.3 0.00 0.00 0.00 38 1019.2
20260509223032 24 23 6.4 12.9 0.00 0.00 0.00 40 1019.5
20260509221532 24 13 6.4 12.9 0.00 0.00 0.00 41 1019.7
20260509220032 23 17 4.8 16.1 0.00 0.00 0.00 43 1019.8
20260509214605 23 17 4.8 14.5 0.00 0.00 0.00 45 1020.0
20260509213029 22 354 6.4 16.1 0.00 0.00 0.00 47 1020.2
20260509211531 22 336 3.2 9.7 0.00 0.00 0.00 48 1020.3
20260509210111 -17 0 0.0 0.0 0.00 0.00 0.00 100
20260509204549 -17 0 0.0 0.0 0.00 0.00 0.00 100
20260509203031 21 11 4.8 12.9 0.00 0.00 0.00 48 1020.7
20260509201530 21 15 6.4 12.9 0.00 0.00 0.00 48 1021.0
20260509200106 21 23 4.8 16.1 0.00 0.00 0.00 49 1021.2
20260509194529 21 16 4.8 12.9 0.00 0.00 0.00 48 1021.5
20260509193031 21 11 4.8 11.3 0.00 0.00 0.00 47 1021.6
20260509191529 21 4 4.8 11.3 0.00 0.00 0.00 47 1021.8
20260509190030 21 35 3.2 12.9 0.00 0.00 0.00 47 1021.9
20260509184603 21 48 4.8 11.3 0.00 0.00 0.00 46 1022.1